owner,sensor,date,latitude,longitude,vertical_datum,wind_speed,wind_to_direction,wind_speed_of_gust,qcFlag 
TCOON,ioos:station:TCOON:005:1,2010-03-01T14:00:00Z,27.6346,-97.2370,0.0,4.2,337.0,4.7,'11111222,11111222,11111222' 
TCOON,ioos:station:TCOON:005:1,2010-03-01T15:00:00Z,27.6346,-97.2370,0.0,2.8,358.0,3.5,'11111222,11111222,11111222' 
TCOON,ioos:station:TCOON:005:1,2010-03-01T16:00:00Z,27.6346,-97.2370,0.0,2.6,324.0,2.9,'11111222,11111222,11111222' 
TCOON,ioos:station:TCOON:005:1,2010-03-01T17:00:00Z,27.6346,-97.2370,0.0,1.8,342.0,2.3,'11111222,11111222,11111222' 
TCOON,ioos:station:TCOON:005:1,2010-03-01T18:00:00Z,27.6346,-97.2370,0.0,3.1,359.0,3.8,'11111222,11111222,11111222' 
TCOON,ioos:station:TCOON:005:1,2010-03-01T19:00:00Z,27.6346,-97.2370,0.0,1.5,17.0,2.4,'11111222,11111222,11111222' 
TCOON,ioos:station:TCOON:005:1,2010-03-01T20:00:00Z,27.6346,-97.2370,0.0,4.4,327.0,5.6,'11111222,11111222,11111222' 
TCOON,ioos:station:TCOON:005:1,2010-03-01T21:00:00Z,27.6346,-97.2370,0.0,9.3,311.0,10.5,'11111222,11111222,11111222' 
TCOON,ioos:station:TCOON:005:1,2010-03-01T22:00:00Z,27.6346,-97.2370,0.0,11.1,316.0,13.1,'11111222,11111222,11111222' 
TCOON,ioos:station:TCOON:005:1,2010-03-01T23:00:00Z,27.6346,-97.2370,0.0,12.9,313.0,14.8,'11111222,11111222,11111222' 
TCOON,ioos:station:TCOON:005:1,2010-03-02T00:00:00Z,27.6346,-97.2370,0.0,11.9,312.0,14.4,'11111222,11111222,11111222' 
TCOON,ioos:station:TCOON:005:1,2010-03-02T01:00:00Z,27.6346,-97.2370,0.0,14.0,323.0,17.4,'11111222,11111222,11111222' 
TCOON,ioos:station:TCOON:005:1,2010-03-02T02:00:00Z,27.6346,-97.2370,0.0,17.3,321.0,20.2,'11111222,11111222,11111222' 
TCOON,ioos:station:TCOON:005:1,2010-03-02T03:00:00Z,27.6346,-97.2370,0.0,14.7,328.0,17.7,'11111222,11111222,11111222' 
TCOON,ioos:station:TCOON:005:1,2010-03-02T04:00:00Z,27.6346,-97.2370,0.0,16.7,349.0,20.7,'11111222,11111222,11111222' 
TCOON,ioos:station:TCOON:005:1,2010-03-02T05:00:00Z,27.6346,-97.2370,0.0,16.4,341.0,19.4,'11111222,11111222,11111222' 
TCOON,ioos:station:TCOON:005:1,2010-03-02T06:00:00Z,27.6346,-97.2370,0.0,14.4,350.0,18.1,'11111222,11111222,11111222' 
TCOON,ioos:station:TCOON:005:1,2010-03-02T07:00:00Z,27.6346,-97.2370,0.0,15.9,343.0,19.0,'11111222,11111222,11111222' 
TCOON,ioos:station:TCOON:005:1,2010-03-02T08:00:00Z,27.6346,-97.2370,0.0,17.0,343.0,19.6,'11111222,11111222,11111222' 
TCOON,ioos:station:TCOON:005:1,2010-03-02T09:00:00Z,27.6346,-97.2370,0.0,14.0,340.0,16.8,'11111222,11111222,11111222' 
TCOON,ioos:station:TCOON:005:1,2010-03-02T10:00:00Z,27.6346,-97.2370,0.0,13.1,341.0,15.2,'11111222,11111222,11111222' 
TCOON,ioos:station:TCOON:005:1,2010-03-02T12:00:00Z,27.6346,-97.2370,0.0,11.6,338.0,13.2,'11111222,11111222,11111222' 
TCOON,ioos:station:TCOON:005:1,2010-03-02T14:00:00Z,27.6346,-97.2370,0.0,10.8,330.0,13.4,'11111222,11111222,11111222' 
TCOON,ioos:station:TCOON:005:1,2010-03-02T15:00:00Z,27.6346,-97.2370,0.0,8.9,326.0,10.6,'11111222,11111222,11111222' 
TCOON,ioos:station:TCOON:005:1,2010-03-02T16:00:00Z,27.6346,-97.2370,0.0,7.9,322.0,9.5,'11111222,11111222,11111222' 
TCOON,ioos:station:TCOON:005:1,2010-03-02T17:00:00Z,27.6346,-97.2370,0.0,8.5,318.0,10.3,'11111222,11111222,11111222' 
TCOON,ioos:station:TCOON:005:1,2010-03-02T18:00:00Z,27.6346,-97.2370,0.0,7.3,327.0,9.1,'11111222,11111222,11111222' 
TCOON,ioos:station:TCOON:005:1,2010-03-02T19:00:00Z,27.6346,-97.2370,0.0,6.2,326.0,7.5,'11111222,11111222,11111222' 
TCOON,ioos:station:TCOON:005:1,2010-03-02T20:00:00Z,27.6346,-97.2370,0.0,7.2,336.0,8.1,'11111222,11111222,11111222' 
TCOON,ioos:station:TCOON:005:1,2010-03-02T21:00:00Z,27.6346,-97.2370,0.0,7.7,334.0,9.2,'11111222,11111222,11111222' 
TCOON,ioos:station:TCOON:005:1,2010-03-02T22:00:00Z,27.6346,-97.2370,0.0,6.6,337.0,7.4,'11111222,11111222,11111222' 
TCOON,ioos:station:TCOON:005:1,2010-03-02T23:00:00Z,27.6346,-97.2370,0.0,5.5,333.0,6.1,'11111222,11111222,11111222' 
TCOON,ioos:station:TCOON:005:1,2010-03-03T00:00:00Z,27.6346,-97.2370,0.0,4.7,335.0,5.6,'11111222,11111222,11111222' 
TCOON,ioos:station:TCOON:005:1,2010-03-03T01:00:00Z,27.6346,-97.2370,0.0,3.5,348.0,3.9,'11111222,11111222,11111222' 
TCOON,ioos:station:TCOON:005:1,2010-03-03T02:00:00Z,27.6346,-97.2370,0.0,2.3,346.0,2.5,'11111222,11111222,11111222' 
TCOON,ioos:station:TCOON:005:1,2010-03-03T03:00:00Z,27.6346,-97.2370,0.0,3.1,25.0,3.5,'11111222,11111222,11111222' 
TCOON,ioos:station:TCOON:005:1,2010-03-03T04:00:00Z,27.6346,-97.2370,0.0,1.8,73.0,2.1,'11111222,11111222,11111222' 
TCOON,ioos:station:TCOON:005:1,2010-03-03T05:00:00Z,27.6346,-97.2370,0.0,2.8,106.0,2.9,'11111222,11111222,11111222' 
TCOON,ioos:station:TCOON:005:1,2010-03-03T06:00:00Z,27.6346,-97.2370,0.0,3.3,98.0,3.6,'11111222,11111222,11111222' 
TCOON,ioos:station:TCOON:005:1,2010-03-03T07:00:00Z,27.6346,-97.2370,0.0,2.8,87.0,3.0,'11111222,11111222,11111222' 
TCOON,ioos:station:TCOON:005:1,2010-03-03T08:00:00Z,27.6346,-97.2370,0.0,2.0,112.0,2.2,'11111222,11111222,11111222' 
TCOON,ioos:station:TCOON:005:1,2010-03-03T09:00:00Z,27.6346,-97.2370,0.0,1.9,126.0,2.2,'11111222,11111222,11111222' 
TCOON,ioos:station:TCOON:005:1,2010-03-03T10:00:00Z,27.6346,-97.2370,0.0,1.0,175.0,1.1,'11111222,11111222,11111222' 
TCOON,ioos:station:TCOON:005:1,2010-03-03T11:00:00Z,27.6346,-97.2370,0.0,1.0,209.0,1.3,'11111222,11111222,11111222' 
TCOON,ioos:station:TCOON:005:1,2010-03-03T12:00:00Z,27.6346,-97.2370,0.0,3.0,245.0,3.7,'11111222,11111222,11111222' 
TCOON,ioos:station:TCOON:005:1,2010-03-03T13:00:00Z,27.6346,-97.2370,0.0,2.8,248.0,3.2,'11111222,11111222,11111222' 
TCOON,ioos:station:TCOON:005:1,2010-03-03T14:00:00Z,27.6346,-97.2370,0.0,3.1,231.0,3.7,'11111222,11111222,11111222' 
TCOON,ioos:station:TCOON:005:1,2010-03-03T15:00:00Z,27.6346,-97.2370,0.0,3.0,231.0,3.5,'11111222,11111222,11111222' 
TCOON,ioos:station:TCOON:005:1,2010-03-03T16:00:00Z,27.6346,-97.2370,0.0,2.1,233.0,2.8,'11111222,11111222,11111222' 
TCOON,ioos:station:TCOON:005:1,2010-03-03T18:00:00Z,27.6346,-97.2370,0.0,4.0,149.0,6.4,'11111222,11111222,11111222' 
TCOON,ioos:station:TCOON:005:1,2010-03-03T19:00:00Z,27.6346,-97.2370,0.0,5.1,148.0,6.2,'11111222,11111222,11111222' 
TCOON,ioos:station:TCOON:005:1,2010-03-03T20:00:00Z,27.6346,-97.2370,0.0,5.2,121.0,6.7,'11111222,11111222,11111222' 
TCOON,ioos:station:TCOON:005:1,2010-03-03T21:00:00Z,27.6346,-97.2370,0.0,5.9,116.0,7.3,'11111222,11111222,11111222' 
TCOON,ioos:station:TCOON:005:1,2010-03-03T22:00:00Z,27.6346,-97.2370,0.0,6.3,110.0,7.9,'11111222,11111222,11111222' 
TCOON,ioos:station:TCOON:005:1,2010-03-03T23:00:00Z,27.6346,-97.2370,0.0,6.7,106.0,7.8,'11111222,11111222,11111222' 
TCOON,ioos:station:TCOON:005:1,2010-03-04T00:00:00Z,27.6346,-97.2370,0.0,5.9,110.0,6.9,'11111222,11111222,11111222' 
TCOON,ioos:station:TCOON:005:1,2010-03-04T01:00:00Z,27.6346,-97.2370,0.0,4.8,114.0,5.6,'11111222,11111222,11111222' 
TCOON,ioos:station:TCOON:005:1,2010-03-04T02:00:00Z,27.6346,-97.2370,0.0,4.9,125.0,6.3,'11111222,11111222,11111222' 
TCOON,ioos:station:TCOON:005:1,2010-03-04T03:00:00Z,27.6346,-97.2370,0.0,4.2,127.0,5.3,'11111222,11111222,11111222' 
TCOON,ioos:station:TCOON:005:1,2010-03-04T04:00:00Z,27.6346,-97.2370,0.0,3.8,129.0,4.9,'11111222,11111222,11111222' 
TCOON,ioos:station:TCOON:005:1,2010-03-04T05:00:00Z,27.6346,-97.2370,0.0,3.8,140.0,4.8,'11111222,11111222,11111222' 
TCOON,ioos:station:TCOON:005:1,2010-03-04T06:00:00Z,27.6346,-97.2370,0.0,3.3,146.0,14.3,'11111222,11111222,11111222' 
TCOON,ioos:station:TCOON:005:1,2010-03-04T07:00:00Z,27.6346,-97.2370,0.0,3.1,144.0,4.7,'11111222,11111222,11111222' 
TCOON,ioos:station:TCOON:005:1,2010-03-04T08:00:00Z,27.6346,-97.2370,0.0,3.2,143.0,4.1,'11111222,11111222,11111222' 
TCOON,ioos:station:TCOON:005:1,2010-03-04T09:00:00Z,27.6346,-97.2370,0.0,2.2,157.0,3.1,'11111222,11111222,11111222' 
TCOON,ioos:station:TCOON:005:1,2010-03-04T11:00:00Z,27.6346,-97.2370,0.0,1.9,135.0,2.3,'11111222,11111222,11111222' 
TCOON,ioos:station:TCOON:005:1,2010-03-04T12:00:00Z,27.6346,-97.2370,0.0,2.0,131.0,2.3,'11111222,11111222,11111222' 
TCOON,ioos:station:TCOON:005:1,2010-03-04T13:00:00Z,27.6346,-97.2370,0.0,2.0,124.0,2.3,'11111222,11111222,11111222' 
TCOON,ioos:station:TCOON:005:1,2010-03-04T14:00:00Z,27.6346,-97.2370,0.0,2.2,143.0,3.0,'11111222,11111222,11111222' 
TCOON,ioos:station:TCOON:005:1,2010-03-04T15:00:00Z,27.6346,-97.2370,0.0,4.8,162.0,99.0,'11111222,11111222,11144222' 
TCOON,ioos:station:TCOON:005:1,2010-03-11T21:00:00Z,27.6346,-97.2370,0.0,5.8,87.0,6.6,'11111222,11111222,11111222' 
TCOON,ioos:station:TCOON:005:1,2010-03-11T22:00:00Z,27.6346,-97.2370,0.0,5.2,89.0,6.2,'11111222,11111222,11111222' 
TCOON,ioos:station:TCOON:005:1,2010-03-11T23:00:00Z,27.6346,-97.2370,0.0,4.9,105.0,5.9,'11111222,11111222,11111222' 
TCOON,ioos:station:TCOON:005:1,2010-03-12T00:00:00Z,27.6346,-97.2370,0.0,4.1,111.0,4.8,'11111222,11111222,11111222' 
TCOON,ioos:station:TCOON:005:1,2010-03-12T01:00:00Z,27.6346,-97.2370,0.0,3.1,122.0,3.5,'11111222,11111222,11111222' 
TCOON,ioos:station:TCOON:005:1,2010-03-12T02:00:00Z,27.6346,-97.2370,0.0,0.3,187.0,0.7,'11111222,11111222,11111222' 
TCOON,ioos:station:TCOON:005:1,2010-03-12T03:00:00Z,27.6346,-97.2370,0.0,0.0,277.0,99.0,'11111222,11111222,11144222' 
TCOON,ioos:station:TCOON:005:1,2010-03-12T05:00:00Z,27.6346,-97.2370,0.0,4.7,6.0,5.9,'11111222,11111222,11111222' 
TCOON,ioos:station:TCOON:005:1,2010-03-12T06:00:00Z,27.6346,-97.2370,0.0,5.8,360.0,7.1,'11111222,11144222,11111222' 
TCOON,ioos:station:TCOON:005:1,2010-03-12T07:00:00Z,27.6346,-97.2370,0.0,2.5,6.0,2.9,'11111222,11111222,11111222' 
TCOON,ioos:station:TCOON:005:1,2010-03-12T09:00:00Z,27.6346,-97.2370,0.0,11.7,331.0,13.3,'11111222,11111222,11111222' 
TCOON,ioos:station:TCOON:005:1,2010-03-12T10:00:00Z,27.6346,-97.2370,0.0,10.5,329.0,12.8,'11111222,11111222,11111222' 
TCOON,ioos:station:TCOON:005:1,2010-03-12T11:00:00Z,27.6346,-97.2370,0.0,11.5,326.0,13.5,'11111222,11111222,11111222' 
TCOON,ioos:station:TCOON:005:1,2010-03-12T12:00:00Z,27.6346,-97.2370,0.0,10.6,322.0,12.4,'11111222,11111222,11111222' 
TCOON,ioos:station:TCOON:005:1,2010-03-12T13:00:00Z,27.6346,-97.2370,0.0,11.0,323.0,12.6,'11111222,11111222,11111222' 
TCOON,ioos:station:TCOON:005:1,2010-03-12T14:00:00Z,27.6346,-97.2370,0.0,9.2,320.0,10.5,'11111222,11111222,11111222' 
TCOON,ioos:station:TCOON:005:1,2010-03-12T15:00:00Z,27.6346,-97.2370,0.0,9.1,321.0,10.6,'11111222,11111222,11111222' 
TCOON,ioos:station:TCOON:005:1,2010-03-12T16:00:00Z,27.6346,-97.2370,0.0,9.1,331.0,10.3,'11111222,11111222,11111222' 
TCOON,ioos:station:TCOON:005:1,2010-03-12T17:00:00Z,27.6346,-97.2370,0.0,7.3,313.0,8.4,'11111222,11111222,11111222' 
TCOON,ioos:station:TCOON:005:1,2010-03-12T18:00:00Z,27.6346,-97.2370,0.0,7.5,328.0,9.3,'11111222,11111222,11111222' 
TCOON,ioos:station:TCOON:005:1,2010-03-12T19:00:00Z,27.6346,-97.2370,0.0,6.8,331.0,8.0,'11111222,11111222,11111222' 
TCOON,ioos:station:TCOON:005:1,2010-03-12T20:00:00Z,27.6346,-97.2370,0.0,7.6,338.0,9.4,'11111222,11111222,11111222' 
TCOON,ioos:station:TCOON:005:1,2010-03-12T21:00:00Z,27.6346,-97.2370,0.0,5.5,336.0,7.0,'11111222,11111222,11111222' 
TCOON,ioos:station:TCOON:005:1,2010-03-12T22:00:00Z,27.6346,-97.2370,0.0,6.9,317.0,8.5,'11111222,11111222,11111222' 
TCOON,ioos:station:TCOON:005:1,2010-03-12T23:00:00Z,27.6346,-97.2370,0.0,6.2,315.0,7.1,'11111222,11111222,11111222' 
TCOON,ioos:station:TCOON:005:1,2010-03-13T00:00:00Z,27.6346,-97.2370,0.0,5.4,325.0,6.2,'11111222,11111222,11111222' 
TCOON,ioos:station:TCOON:005:1,2010-03-13T01:00:00Z,27.6346,-97.2370,0.0,1.9,302.0,2.2,'11111222,11111222,11111222' 
TCOON,ioos:station:TCOON:005:1,2010-03-13T02:00:00Z,27.6346,-97.2370,0.0,2.4,166.0,3.0,'11111222,11111222,11111222' 
TCOON,ioos:station:TCOON:005:1,2010-03-13T03:00:00Z,27.6346,-97.2370,0.0,2.8,178.0,3.2,'11111222,11111222,11111222' 
TCOON,ioos:station:TCOON:005:1,2010-03-13T04:00:00Z,27.6346,-97.2370,0.0,3.7,186.0,4.8,'11111222,11111222,11111222' 
TCOON,ioos:station:TCOON:005:1,2010-03-13T05:00:00Z,27.6346,-97.2370,0.0,4.7,189.0,6.3,'11111222,11111222,11111222' 
TCOON,ioos:station:TCOON:005:1,2010-03-13T06:00:00Z,27.6346,-97.2370,0.0,4.5,206.0,5.4,'11111222,11111222,11111222' 
TCOON,ioos:station:TCOON:005:1,2010-03-13T07:00:00Z,27.6346,-97.2370,0.0,4.8,198.0,5.6,'11111222,11111222,11111222' 
TCOON,ioos:station:TCOON:005:1,2010-03-13T09:00:00Z,27.6346,-97.2370,0.0,5.9,226.0,7.1,'11111222,11111222,11111222' 
TCOON,ioos:station:TCOON:005:1,2010-03-13T10:00:00Z,27.6346,-97.2370,0.0,4.6,242.0,5.9,'11111222,11111222,11111222' 
TCOON,ioos:station:TCOON:005:1,2010-03-13T11:00:00Z,27.6346,-97.2370,0.0,5.4,255.0,6.5,'11111222,11111222,11111222' 
TCOON,ioos:station:TCOON:005:1,2010-03-13T12:00:00Z,27.6346,-97.2370,0.0,5.8,247.0,7.2,'11111222,11111222,11111222' 
TCOON,ioos:station:TCOON:005:1,2010-03-13T13:00:00Z,27.6346,-97.2370,0.0,4.5,242.0,5.6,'11111222,11111222,11111222' 
TCOON,ioos:station:TCOON:005:1,2010-03-13T14:00:00Z,27.6346,-97.2370,0.0,2.8,262.0,3.5,'11111222,11111222,11111222' 
TCOON,ioos:station:TCOON:005:1,2010-03-13T15:00:00Z,27.6346,-97.2370,0.0,2.1,269.0,2.9,'11111222,11111222,11111222' 
TCOON,ioos:station:TCOON:005:1,2010-03-13T17:00:00Z,27.6346,-97.2370,0.0,3.0,35.0,4.0,'11111222,11111222,11111222' 
TCOON,ioos:station:TCOON:005:1,2010-03-13T18:00:00Z,27.6346,-97.2370,0.0,2.2,2.0,2.9,'11111222,11111222,11111222' 
TCOON,ioos:station:TCOON:005:1,2010-03-13T19:00:00Z,27.6346,-97.2370,0.0,3.6,93.0,4.5,'11111222,11111222,11111222' 
TCOON,ioos:station:TCOON:005:1,2010-03-13T20:00:00Z,27.6346,-97.2370,0.0,5.0,102.0,5.8,'11111222,11111222,11111222' 
TCOON,ioos:station:TCOON:005:1,2010-03-13T21:00:00Z,27.6346,-97.2370,0.0,5.5,100.0,7.1,'11111222,11111222,11111222' 
TCOON,ioos:station:TCOON:005:1,2010-03-13T22:00:00Z,27.6346,-97.2370,0.0,6.0,105.0,6.8,'11111222,11111222,11111222' 
TCOON,ioos:station:TCOON:005:1,2010-03-13T23:00:00Z,27.6346,-97.2370,0.0,5.6,115.0,6.6,'11111222,11111222,11111222' 
TCOON,ioos:station:TCOON:005:1,2010-03-14T00:00:00Z,27.6346,-97.2370,0.0,5.5,122.0,7.1,'11111222,11111222,11111222' 
TCOON,ioos:station:TCOON:005:1,2010-03-14T01:00:00Z,27.6346,-97.2370,0.0,5.3,128.0,6.7,'11111222,11111222,11111222' 
TCOON,ioos:station:TCOON:005:1,2010-03-14T02:00:00Z,27.6346,-97.2370,0.0,5.2,131.0,6.4,'11111222,11111222,11111222' 
TCOON,ioos:station:TCOON:005:1,2010-03-14T03:00:00Z,27.6346,-97.2370,0.0,4.9,146.0,6.6,'11111222,11111222,11111222' 
TCOON,ioos:station:TCOON:005:1,2010-03-14T06:00:00Z,27.6346,-97.2370,0.0,4.4,163.0,5.8,'11111222,11111222,11111222' 
TCOON,ioos:station:TCOON:005:1,2010-03-14T07:00:00Z,27.6346,-97.2370,0.0,4.7,165.0,6.2,'11111222,11111222,11111222' 
TCOON,ioos:station:TCOON:005:1,2010-03-14T08:00:00Z,27.6346,-97.2370,0.0,4.6,171.0,6.0,'11111222,11111222,11111222' 
TCOON,ioos:station:TCOON:005:1,2010-03-14T09:00:00Z,27.6346,-97.2370,0.0,4.6,173.0,6.7,'11111222,11111222,11111222' 
TCOON,ioos:station:TCOON:005:1,2010-03-14T10:00:00Z,27.6346,-97.2370,0.0,4.3,166.0,5.4,'11111222,11111222,11111222' 
TCOON,ioos:station:TCOON:005:1,2010-03-14T11:00:00Z,27.6346,-97.2370,0.0,4.3,164.0,5.8,'11111222,11111222,11111222' 
TCOON,ioos:station:TCOON:005:1,2010-03-14T12:00:00Z,27.6346,-97.2370,0.0,4.2,160.0,5.7,'11111222,11111222,11111222' 
TCOON,ioos:station:TCOON:005:1,2010-03-14T13:00:00Z,27.6346,-97.2370,0.0,3.7,159.0,5.1,'11111222,11111222,11111222' 
TCOON,ioos:station:TCOON:005:1,2010-03-14T14:00:00Z,27.6346,-97.2370,0.0,4.7,155.0,5.9,'11111222,11111222,11111222' 
TCOON,ioos:station:TCOON:005:1,2010-03-14T15:00:00Z,27.6346,-97.2370,0.0,4.7,157.0,6.7,'11111222,11111222,11111222' 
TCOON,ioos:station:TCOON:005:1,2010-03-14T16:00:00Z,27.6346,-97.2370,0.0,4.7,149.0,7.0,'11111222,11111222,11111222' 
TCOON,ioos:station:TCOON:005:1,2010-03-14T17:00:00Z,27.6346,-97.2370,0.0,5.0,145.0,6.7,'11111222,11111222,11111222' 
TCOON,ioos:station:TCOON:005:1,2010-03-14T18:00:00Z,27.6346,-97.2370,0.0,5.7,147.0,7.8,'11111222,11111222,11111222' 
TCOON,ioos:station:TCOON:005:1,2010-03-14T19:00:00Z,27.6346,-97.2370,0.0,6.4,146.0,8.7,'11111222,11111222,11111222' 
TCOON,ioos:station:TCOON:005:1,2010-03-14T20:00:00Z,27.6346,-97.2370,0.0,6.1,150.0,9.1,'11111222,11111222,11111222' 
TCOON,ioos:station:TCOON:005:1,2010-03-14T21:00:00Z,27.6346,-97.2370,0.0,7.4,143.0,99.0,'11111222,11111222,11144222' 
TCOON,ioos:station:TCOON:005:1,2010-03-14T22:00:00Z,27.6346,-97.2370,0.0,7.1,152.0,9.7,'11111222,11111222,11111222' 
TCOON,ioos:station:TCOON:005:1,2010-03-14T23:00:00Z,27.6346,-97.2370,0.0,5.5,155.0,7.4,'11111222,11111222,11111222' 
TCOON,ioos:station:TCOON:005:1,2010-03-15T00:00:00Z,27.6346,-97.2370,0.0,4.7,154.0,6.6,'11111222,11111222,11111222' 
TCOON,ioos:station:TCOON:005:1,2010-03-15T01:00:00Z,27.6346,-97.2370,0.0,4.8,151.0,6.5,'11111222,11111222,11111222' 
TCOON,ioos:station:TCOON:005:1,2010-03-15T02:00:00Z,27.6346,-97.2370,0.0,4.4,147.0,5.8,'11111222,11111222,11111222' 
TCOON,ioos:station:TCOON:005:1,2010-03-15T03:00:00Z,27.6346,-97.2370,0.0,4.2,142.0,5.6,'11111222,11111222,11111222' 
TCOON,ioos:station:TCOON:005:1,2010-03-15T04:00:00Z,27.6346,-97.2370,0.0,5.0,140.0,6.7,'11111222,11111222,11111222' 
TCOON,ioos:station:TCOON:005:1,2010-03-15T05:00:00Z,27.6346,-97.2370,0.0,4.6,140.0,6.5,'11111222,11111222,11111222' 
TCOON,ioos:station:TCOON:005:1,2010-03-15T06:00:00Z,27.6346,-97.2370,0.0,4.1,125.0,5.2,'11111222,11111222,11111222' 
TCOON,ioos:station:TCOON:005:1,2010-03-15T07:00:00Z,27.6346,-97.2370,0.0,4.4,127.0,5.9,'11111222,11111222,11111222' 
TCOON,ioos:station:TCOON:005:1,2010-03-15T08:00:00Z,27.6346,-97.2370,0.0,3.7,118.0,4.6,'11111222,11111222,11111222' 
TCOON,ioos:station:TCOON:005:1,2010-03-15T09:00:00Z,27.6346,-97.2370,0.0,4.2,108.0,5.0,'11111222,11111222,11111222' 
TCOON,ioos:station:TCOON:005:1,2010-03-15T10:00:00Z,27.6346,-97.2370,0.0,4.6,99.0,5.3,'11111222,11111222,11111222' 
TCOON,ioos:station:TCOON:005:1,2010-03-15T11:00:00Z,27.6346,-97.2370,0.0,5.7,101.0,6.4,'11111222,11111222,11111222' 
TCOON,ioos:station:TCOON:005:1,2010-03-15T12:00:00Z,27.6346,-97.2370,0.0,5.9,100.0,6.9,'11111222,11111222,11111222' 
TCOON,ioos:station:TCOON:005:1,2010-03-15T13:00:00Z,27.6346,-97.2370,0.0,6.5,93.0,7.4,'11111222,11111222,11111222' 
TCOON,ioos:station:TCOON:005:1,2010-03-15T14:00:00Z,27.6346,-97.2370,0.0,6.1,93.0,7.2,'11111222,11111222,11111222' 
TCOON,ioos:station:TCOON:005:1,2010-03-15T15:00:00Z,27.6346,-97.2370,0.0,6.7,92.0,8.2,'11111222,11111222,11111222' 
TCOON,ioos:station:TCOON:005:1,2010-03-15T16:00:00Z,27.6346,-97.2370,0.0,7.8,90.0,8.7,'11111222,11111222,11111222' 
TCOON,ioos:station:TCOON:005:1,2010-03-15T17:00:00Z,27.6346,-97.2370,0.0,7.5,87.0,8.9,'11111222,11111222,11111222' 
TCOON,ioos:station:TCOON:005:1,2010-03-15T18:00:00Z,27.6346,-97.2370,0.0,7.4,89.0,8.8,'11111222,11111222,11111222' 
TCOON,ioos:station:TCOON:005:1,2010-03-15T19:00:00Z,27.6346,-97.2370,0.0,6.3,97.0,7.9,'11111222,11111222,11111222' 
TCOON,ioos:station:TCOON:005:1,2010-03-15T20:00:00Z,27.6346,-97.2370,0.0,7.9,61.0,9.0,'11111222,11111222,11111222' 
TCOON,ioos:station:TCOON:005:1,2010-03-15T21:00:00Z,27.6346,-97.2370,0.0,11.0,65.0,12.6,'11111222,11111222,11111222' 
TCOON,ioos:station:TCOON:005:1,2010-03-15T22:00:00Z,27.6346,-97.2370,0.0,8.8,48.0,10.1,'11111222,11111222,11111222' 
TCOON,ioos:station:TCOON:005:1,2010-03-15T23:00:00Z,27.6346,-97.2370,0.0,9.6,51.0,10.8,'11111222,11111222,11111222' 
TCOON,ioos:station:TCOON:005:1,2010-03-16T00:00:00Z,27.6346,-97.2370,0.0,8.4,70.0,9.7,'11111222,11111222,11111222' 
TCOON,ioos:station:TCOON:005:1,2010-03-16T01:00:00Z,27.6346,-97.2370,0.0,7.4,74.0,15.4,'11111222,11111222,11111222' 
TCOON,ioos:station:TCOON:005:1,2010-03-16T02:00:00Z,27.6346,-97.2370,0.0,7.7,82.0,8.3,'11111222,11111222,11111222' 
TCOON,ioos:station:TCOON:005:1,2010-03-16T03:00:00Z,27.6346,-97.2370,0.0,7.6,88.0,8.4,'11111222,11111222,11111222' 
TCOON,ioos:station:TCOON:005:1,2010-03-16T04:00:00Z,27.6346,-97.2370,0.0,5.2,88.0,6.2,'11111222,11111222,11111222' 
TCOON,ioos:station:TCOON:005:1,2010-03-16T05:00:00Z,27.6346,-97.2370,0.0,4.7,67.0,5.2,'11111222,11111222,11111222' 
TCOON,ioos:station:TCOON:005:1,2010-03-16T06:00:00Z,27.6346,-97.2370,0.0,4.7,17.0,5.2,'11111222,11111222,11111222' 
TCOON,ioos:station:TCOON:005:1,2010-03-16T07:00:00Z,27.6346,-97.2370,0.0,5.0,360.0,6.1,'11111222,11144222,11111222' 
TCOON,ioos:station:TCOON:005:1,2010-03-16T08:00:00Z,27.6346,-97.2370,0.0,6.0,359.0,7.3,'11111222,11111222,11111222' 
TCOON,ioos:station:TCOON:005:1,2010-03-16T09:00:00Z,27.6346,-97.2370,0.0,5.4,358.0,6.5,'11111222,11111222,11111222' 
TCOON,ioos:station:TCOON:005:1,2010-03-16T10:00:00Z,27.6346,-97.2370,0.0,5.9,353.0,7.1,'11111222,11111222,11111222' 
TCOON,ioos:station:TCOON:005:1,2010-03-16T11:00:00Z,27.6346,-97.2370,0.0,8.4,345.0,10.0,'11111222,11111222,11111222' 
TCOON,ioos:station:TCOON:005:1,2010-03-16T12:00:00Z,27.6346,-97.2370,0.0,10.7,351.0,13.1,'11111222,11111222,11111222' 
TCOON,ioos:station:TCOON:005:1,2010-03-16T13:00:00Z,27.6346,-97.2370,0.0,9.1,341.0,10.2,'11111222,11111222,11111222' 
TCOON,ioos:station:TCOON:005:1,2010-03-16T14:00:00Z,27.6346,-97.2370,0.0,8.9,354.0,10.2,'11111222,11111222,11111222' 
TCOON,ioos:station:TCOON:005:1,2010-03-16T15:00:00Z,27.6346,-97.2370,0.0,8.9,350.0,11.1,'11111222,11111222,11111222' 
TCOON,ioos:station:TCOON:005:1,2010-03-16T16:00:00Z,27.6346,-97.2370,0.0,5.8,9.0,8.0,'11111222,11111222,11111222' 
TCOON,ioos:station:TCOON:005:1,2010-03-16T17:00:00Z,27.6346,-97.2370,0.0,6.2,59.0,7.5,'11111222,11111222,11111222' 
TCOON,ioos:station:TCOON:005:1,2010-03-16T18:00:00Z,27.6346,-97.2370,0.0,3.7,321.0,4.5,'11111222,11111222,11111222' 
TCOON,ioos:station:TCOON:005:1,2010-03-16T19:00:00Z,27.6346,-97.2370,0.0,5.0,318.0,6.7,'11111222,11111222,11111222' 
TCOON,ioos:station:TCOON:005:1,2010-03-16T20:00:00Z,27.6346,-97.2370,0.0,4.0,313.0,4.6,'11111222,11111222,11111222' 
TCOON,ioos:station:TCOON:005:1,2010-03-16T21:00:00Z,27.6346,-97.2370,0.0,2.9,2.0,3.3,'11111222,11111222,11111222' 
TCOON,ioos:station:TCOON:005:1,2010-03-16T22:00:00Z,27.6346,-97.2370,0.0,1.4,300.0,2.4,'11111222,11111222,11111222' 
TCOON,ioos:station:TCOON:005:1,2010-03-16T23:00:00Z,27.6346,-97.2370,0.0,6.9,314.0,7.6,'11111222,11111222,11111222' 
TCOON,ioos:station:TCOON:005:1,2010-03-17T00:00:00Z,27.6346,-97.2370,0.0,8.0,322.0,9.1,'11111222,11111222,11111222' 
TCOON,ioos:station:TCOON:005:1,2010-03-17T01:00:00Z,27.6346,-97.2370,0.0,8.3,321.0,9.7,'11111222,11111222,11111222' 
TCOON,ioos:station:TCOON:005:1,2010-03-17T02:00:00Z,27.6346,-97.2370,0.0,8.0,329.0,9.2,'11111222,11111222,11111222' 
TCOON,ioos:station:TCOON:005:1,2010-03-17T03:00:00Z,27.6346,-97.2370,0.0,8.8,353.0,9.7,'11111222,11111222,11111222' 
TCOON,ioos:station:TCOON:005:1,2010-03-17T05:00:00Z,27.6346,-97.2370,0.0,7.2,344.0,8.9,'11111222,11111222,11111222' 
TCOON,ioos:station:TCOON:005:1,2010-03-17T06:00:00Z,27.6346,-97.2370,0.0,5.9,329.0,7.2,'11111222,11111222,11111222' 
TCOON,ioos:station:TCOON:005:1,2010-03-17T07:00:00Z,27.6346,-97.2370,0.0,3.5,296.0,4.2,'11111222,11111222,11111222' 
TCOON,ioos:station:TCOON:005:1,2010-03-17T08:00:00Z,27.6346,-97.2370,0.0,3.0,296.0,3.9,'11111222,11111222,11111222' 
TCOON,ioos:station:TCOON:005:1,2010-03-17T09:00:00Z,27.6346,-97.2370,0.0,3.0,269.0,3.6,'11111222,11111222,11111222' 
TCOON,ioos:station:TCOON:005:1,2010-03-17T10:00:00Z,27.6346,-97.2370,0.0,2.4,275.0,3.2,'11111222,11111222,11111222' 
TCOON,ioos:station:TCOON:005:1,2010-03-17T11:00:00Z,27.6346,-97.2370,0.0,2.3,285.0,3.5,'11111222,11111222,11111222' 
TCOON,ioos:station:TCOON:005:1,2010-03-17T12:00:00Z,27.6346,-97.2370,0.0,3.6,262.0,4.5,'11111222,11111222,11111222' 
TCOON,ioos:station:TCOON:005:1,2010-03-17T13:00:00Z,27.6346,-97.2370,0.0,4.4,267.0,5.3,'11111222,11111222,11111222' 
TCOON,ioos:station:TCOON:005:1,2010-03-17T14:00:00Z,27.6346,-97.2370,0.0,4.5,291.0,6.8,'11111222,11111222,11111222' 
TCOON,ioos:station:TCOON:005:1,2010-03-17T15:00:00Z,27.6346,-97.2370,0.0,3.9,297.0,4.4,'11111222,11111222,11111222' 
TCOON,ioos:station:TCOON:005:1,2010-03-17T16:00:00Z,27.6346,-97.2370,0.0,5.7,323.0,6.7,'11111222,11111222,11111222' 
TCOON,ioos:station:TCOON:005:1,2010-03-17T17:00:00Z,27.6346,-97.2370,0.0,5.1,328.0,5.8,'11111222,11111222,11111222' 